Effective Sunday, March 17, 2024, the National Weather Service National Data Buoy Center will discontinue its Dial-A-Buoy Interactive Voice Response system. For more information, see Service Change Notice 24-06 (PDF).

Station CRYV2 - 8638595 - South Craney Island, VA Image indicating link to RSS feed of recent meteorological observations for station CRYV2


Conditions at CRYV2 as of
(5:48 pm EST)
2248 GMT on 02/29/2024:
     

Click on the graph icon in the table below to see a time series plot of the last five days of that observation.

5-day plot - Wind Speed Wind Speed (WSPD): 0.0 kts
5-day plot - Wind Gust Wind Gust (GST): 1.9 kts
5-day plot - Atmospheric Pressure Atmospheric Pressure (PRES):30.42 in
5-day plot - Air Temperature Air Temperature (ATMP): 47.8 °F
5-day plot - Wind Speed at 10 Meters Wind Speed at 10 meters (WSPD10M): 0.0 kts
5-day plot - Wind Speed at 20 Meters Wind Speed at 20 meters (WSPD20M): 0.0 kts
5-day plot -  Wind Speed, Wind Gust and Atmospheric Pressure Combined plot of Wind Speed, Gust, and Air Pressure
NOS Water Level Observation Network Water Level
Previous observations
TIME
(EST)
5-day plot - Wind Direction
WDIR
 
5-day plot - Wind Speed
WSPD
kts
5-day plot - Wind Gust
GST
kts
5-day plot - Wave Height
WVHT
ft
5-day plot - Dominant Wave Period
DPD
sec
5-day plot - Average Wave Period
APD
sec
5-day plot - Mean Wave Direction
MWD
 
5-day plot - Atmospheric Pressure
PRES
in
5-day plot - Pressure Tendency
PTDY
in
5-day plot - Air Temperature
ATMP
°F
5-day plot - Water Temperature
WTMP
°F
5-day plot - Dew Point
DEWP
°F
5-day plot - Salinity
SAL
psu
5-day plot - Visibility
VIS
nmi
5-day plot - Tide (above MLLW)
TIDE
ft
2024-02-29 05:42 pmWNW 1.9 2.9----30.42- 48.0-----
2024-02-29 05:36 pmWNW 2.9 2.9----30.42- 48.6-----
2024-02-29 05:30 pmNNW 1.9 2.9----30.41- 48.6-----
2024-02-29 05:24 pm N 2.9 5.1----30.41- 48.2-----
2024-02-29 05:18 pmNNW 4.1 5.1----30.41- 48.6-----
2024-02-29 05:12 pmWNW 4.1 4.1----30.41- 48.9-----
2024-02-29 05:06 pm N 2.9 5.1----30.41- 49.3-----
2024-02-29 05:00 pm NW 2.9 6.0----30.40- 50.0-----
2024-02-29 04:54 pm NW 2.9 5.1----30.40- 49.8-----
2024-02-29 04:48 pmNNW 2.9 6.0----30.40- 49.5-----
2024-02-29 04:42 pmNNW 4.1 6.0----30.40- 49.6-----
2024-02-29 04:36 pmNNW 6.0 8.0----30.39- 49.5-----
2024-02-29 04:30 pm N 6.0 7.0----30.39- 48.4-----
2024-02-29 06:42 amNNW 8.9 12.0----30.35- 41.2-----
2024-02-29 06:36 amNNW 8.0 15.0----30.34- 41.2-----
2024-02-29 06:30 amNNW 9.9 14.0----30.34- 41.4-----
2024-02-29 06:24 amNNW 9.9 13.0----30.33- 41.4-----
2024-02-29 06:18 amNNW 9.9 13.0----30.32- 41.4-----
2024-02-29 06:12 amNNW 11.1 15.9----30.32- 41.5-----
2024-02-29 06:06 amNNW 9.9 15.9----30.32- 41.5-----
2024-02-29 06:00 amNNW 12.0 17.1----30.32+0.14------
2024-02-29 05:54 amNNW 12.0 17.1----30.31-------
2024-02-29 05:48 amNNW 12.0 15.0----30.30- 41.9-----
2024-02-29 05:42 amNNW 13.0 19.0----30.30- 42.1-----
2024-02-29 05:36 amNNW 11.1 15.0----30.30- 42.3-----
2024-02-29 05:30 amNNW 8.9 15.9----30.29- 42.3-----
2024-02-29 05:24 amNNW 9.9 15.0----30.29- 42.6-----
2024-02-29 05:18 amNNW 8.0 15.0----30.28- 42.6-----
2024-02-29 05:12 amNNW 12.0 17.1----30.28- 43.0-----
2024-02-29 05:06 amNNW 12.0 17.1----30.27- 43.0-----
2024-02-29 05:00 amNNW 12.0 15.9----30.27+0.13 43.2-----
2024-02-29 04:54 am NW 8.0 13.0----30.26- 43.2-----
2024-02-29 04:48 amNNW 9.9 15.0----30.25- 43.5-----
2024-02-29 04:42 amNNW 8.9 13.0----30.25- 43.7-----
2024-02-29 04:36 amNNW 9.9 15.0----30.24- 43.5-----
2024-02-29 04:30 amNNW 8.9 15.0----30.24- 43.9-----
2024-02-29 04:24 amNNW 9.9 15.0----30.23- 43.9-----
2024-02-29 04:18 amNNW 13.0 19.0----30.23- 44.1-----
2024-02-29 04:12 amNNW 14.0 20.0----30.23- 44.2-----
2024-02-29 04:06 amNNW 12.0 17.1----30.23- 44.6-----
2024-02-29 04:00 amNNW 12.0 17.1----30.22+0.13 44.6-----
2024-02-29 03:54 amNNW 12.0 20.0----30.22- 44.8-----
2024-02-29 03:48 amNNW 15.0 20.0----30.21- 45.0-----
2024-02-29 03:42 amNNW 12.0 18.1----30.21- 45.1-----
2024-02-29 03:36 am NW 14.0 22.0----30.20- 45.3-----
2024-02-29 03:30 amNNW 13.0 20.0----30.20- 45.3-----
2024-02-29 03:24 amNNW 14.0 22.9----30.19- 45.7-----
2024-02-29 03:18 am NW 12.0 20.0----30.19- 45.9-----
2024-02-29 03:12 am NW 11.1 18.1----30.19- 45.9-----
2024-02-29 03:06 am NW 11.1 17.1----30.18- 45.9-----
2024-02-29 03:00 am NW 11.1 15.0----30.18+0.15 45.9-----
2024-02-29 02:54 am NW 11.1 15.9----30.17- 46.0-----
2024-02-29 02:48 am NW 9.9 17.1----30.16- 46.0-----
2024-02-29 02:42 am NW 9.9 14.0----30.16- 45.9-----
2024-02-29 02:36 am NW 8.9 15.0----30.16- 46.0-----
2024-02-29 02:30 am NW 9.9 15.0----30.15- 46.2-----
2024-02-29 02:24 am NW 12.0 18.1----30.15- 46.6-----
2024-02-29 02:18 am NW 8.9 15.0----30.14- 46.6-----
2024-02-29 02:12 am NW 8.9 15.9----30.14- 47.1-----
2024-02-29 02:06 am NW 9.9 15.9----30.14- 47.1-----
2024-02-29 02:00 amWNW 9.9 22.9----30.14+0.17 47.3-----
2024-02-29 01:54 am NW 12.0 21.0----30.13- 47.8-----
2024-02-29 01:48 am NW 13.0 21.0----30.13- 47.8-----
2024-02-29 01:42 am NW 8.9 17.1----30.12- 47.7-----
2024-02-29 01:36 amWNW 11.1 15.9----30.11- 47.8-----
2024-02-29 01:30 amWNW 9.9 19.0----30.11- 48.0-----
2024-02-29 01:24 amWNW 11.1 19.0----30.11- 48.4-----
2024-02-29 01:18 amWNW 12.0 18.1----30.11- 48.6-----
2024-02-29 01:12 amWNW 11.1 17.1----30.10- 48.7-----
2024-02-29 01:06 amWNW 12.0 19.0----30.09- 49.1-----
2024-02-29 01:00 amWNW 12.0 17.1----30.09+0.20 49.1-----
2024-02-29 12:54 amWNW 11.1 17.1----30.08- 49.5-----
2024-02-29 12:48 amWNW 13.0 20.0----30.07- 50.0-----
2024-02-29 12:42 amWNW 13.0 21.0----30.07- 50.2-----
2024-02-29 12:36 amWNW 12.0 22.9----30.06- 50.5-----
2024-02-29 12:30 amWNW 13.0 25.1----30.05- 51.1-----
2024-02-29 12:24 amWNW 12.0 18.1----30.04- 51.3-----
2024-02-29 12:18 amWNW 13.0 21.0----30.04- 51.4-----
2024-02-29 12:12 amWNW 13.0 20.0----30.04- 51.6-----
2024-02-29 12:06 amWNW 12.0 21.0----30.03- 51.8-----
2024-02-29 12:00 amWNW 11.1 21.0----30.03+0.20 52.0-----
2024-02-28 11:54 pmWNW 13.0 19.0----30.03- 52.3-----
2024-02-28 11:48 pmWNW 15.0 22.0----30.01- 52.7-----
2024-02-28 11:42 pmWNW 13.0 20.0----30.00- 52.5-----
2024-02-28 11:36 pmWNW 15.0 21.0----30.01- 52.9-----
2024-02-28 11:30 pmWNW 13.0 21.0----30.00- 52.7-----
2024-02-28 11:24 pm NW 14.0 26.0----29.99- 52.3-----
2024-02-28 11:18 pm NW 17.1 27.0----29.99- 53.2-----
2024-02-28 11:12 pm NW 19.0 28.0----29.98- 53.8-----
2024-02-28 11:06 pm NW 15.0 26.0----29.98- 53.8-----
2024-02-28 11:00 pm NW 17.1 25.1----29.96+0.23 53.4-----
2024-02-28 10:54 pm NW 15.9 24.1----29.96- 55.2-----
2024-02-28 10:48 pmWNW 13.0 20.0----29.95- 57.7-----
2024-02-28 10:42 pm W 12.0 22.0----29.94- 58.8-----
2024-02-28 10:36 pm W 14.0 21.0----29.93- 59.7-----
2024-02-28 10:30 pm W 9.9 14.0----29.93- 60.1-----
2024-02-28 10:24 pm W 8.9 12.0----29.92- 59.9-----
2024-02-28 10:18 pm W 8.9 13.0----29.89- 59.9-----
2024-02-28 10:12 pm W 11.1 17.1----29.88- 60.3-----
2024-02-28 10:06 pm W 11.1 19.0----29.89- 60.6-----
2024-02-28 10:00 pm W 9.9 17.1----29.88+0.14 60.6-----
2024-02-28 09:54 pmWNW 9.9 15.0----29.88- 60.6-----
2024-02-28 09:48 pm W 8.0 19.0----29.88- 60.4-----
2024-02-28 09:42 pm W 9.9 15.0----29.89- 61.0-----
2024-02-28 09:36 pm W 8.9 14.0----29.89- 61.3-----
2024-02-28 09:30 pm W 7.0 11.1----29.86- 61.5-----
2024-02-28 09:24 pm W 5.1 9.9----29.85- 61.5-----
2024-02-28 09:18 pm W 8.0 12.0----29.84- 61.5-----
2024-02-28 09:12 pm W 7.0 11.1----29.84- 61.5-----
2024-02-28 09:06 pm W 5.1 9.9----29.83- 61.5-----
2024-02-28 09:00 pm W 7.0 11.1----29.83+0.09 61.7-----
2024-02-28 08:54 pm W 8.0 11.1----29.83- 61.7-----
2024-02-28 08:48 pm W 8.9 12.0----29.82- 61.9-----
2024-02-28 08:42 pm W 11.1 17.1----29.83- 62.1-----
2024-02-28 08:36 pm W 12.0 18.1----29.83- 62.4-----
2024-02-28 08:30 pm W 8.9 17.1----29.81- 61.7-----
2024-02-28 08:24 pmWNW 12.0 20.0----29.81- 61.5-----
2024-02-28 08:18 pm W 12.0 19.0----29.79- 67.8-----
2024-02-28 08:12 pm SW 13.0 22.0----29.75- 68.5-----
2024-02-28 08:06 pm SW 11.1 19.0----29.74- 68.2-----
2024-02-28 08:00 pmSSW 14.0 20.0----29.73-0.03 68.2-----
2024-02-28 07:54 pmSSW 15.0 19.0----29.73- 68.2-----
2024-02-28 07:48 pmSSW 13.0 18.1----29.72- 68.5-----
2024-02-28 07:42 pmSSW 15.0 20.0----29.72- 68.0-----
2024-02-28 07:36 pmSSW 12.0 17.1----29.72- 68.0-----
2024-02-28 07:30 pmSSW 15.0 20.0----29.72- 68.0-----
2024-02-28 07:24 pmSSW 13.0 21.0----29.73- 68.2-----
2024-02-28 07:18 pmSSW 14.0 19.0----29.74- 68.9-----
2024-02-28 07:12 pmSSW 14.0 17.1----29.74- 68.9-----
2024-02-28 07:06 pmSSW 15.0 21.0----29.74- 69.4-----
2024-02-28 07:00 pmSSW 12.0 18.1----29.74-0.02 68.5-----
2024-02-28 06:54 pmSSW 15.9 21.0----29.73- 69.6-----